[[{"header":{"parameterUnit":"m.s-1","parameterCategory":2,"la1":30.2991,"la2":30.254,"lo1":-89.0895,"lo2":-89.0444,"dy":0.0017,"dx":0.0017,"nx":28,"ny":28,"refTime":"2024-03-02T09:00:00:Z","depth":"0","parameterNumber":2,"parameterNumberName":"U-component_of_CURRENTS"},"data":[0,0,0,0,0,0,0,0,0,0,0,0,0,0,0,0,0,0,0,0,0,0,0,0,0,0,0,0,0,0,0,0,0,0,0,0,0,0,0,0,0,0,0,0,0,0,0,0,0,0,0,0,0,0,0,0,0,0,0.2334,0.2332,0,0.2226,0.2225,0.2224,0.2168,0.2168,0.2168,0.2168,0.2243,0.2245,0.2247,0,0,0,0,0,0,0,0,0,0,0,0,0,0.2425,0.2424,0.2334,0.2332,0.2331,0.2226,0.2225,0.2224,0.2168,0.2168,0.2168,0.2168,0.2243,0.2245,0.2248,0,0,0,0,0,0,0,0,0,0,0,0,0,0.236,0.2424,0.2334,0.229,0.2285,0.2227,0.2225,0.2223,0.2168,0.2168,0.2168,0.2168,0.2242,0.2245,0.2248,0.2273,0,0,0.2258,0.2259,0,0,0,0,0,0,0,0,0.2364,0.2357,0.2298,0.2293,0.2287,0.2209,0.2284,0.2249,0.2169,0.2214,0.2168,0.2168,0.2248,0.2251,0.223,0.2277,0.228,0.2258,0.226,0.2262,0.2263,0,0,0,0,0,0,0,0.2368,0.2361,0.2292,0.2296,0.229,0.2253,0.2244,0.2276,0.2238,0.221,0.2205,0.2192,0.2247,0.2227,0.2232,0.2281,0.2258,0.2261,0.2263,0.2264,0.2313,0.2312,0,0,0,0,0,0,0.2383,0.2365,0.2296,0.2289,0.2324,0.2251,0.2242,0.2236,0.2234,0.2231,0.2192,0.2189,0.2222,0.2229,0.2235,0.2256,0.2262,0.2265,0.2266,0.2314,0.2313,0.2312,0,0,0,0,0,0,0.2385,0.2378,0.23,0.2323,0.2311,0.2251,0.2244,0.2234,0.2218,0.2218,0.2219,0.2188,0.2222,0.2231,0.2253,0.2259,0.2266,0.2269,0.2314,0.2313,0.2312,0.2304,0,0,0,0,0,0,0.2389,0.238,0.2373,0.2325,0.231,0.2255,0.2244,0.2232,0.2209,0.2205,0.2215,0.2221,0.2222,0.2248,0.2256,0.2264,0.2272,0.2315,0.2314,0.2313,0.2305,0.2303,0.2301,0,0,0,0,0,0.2393,0.2372,0.2374,0.2365,0.2305,0.2254,0.2243,0.22,0.221,0.219,0.2201,0.2221,0.2245,0.225,0.226,0.2269,0.2316,0.2314,0.2313,0.2306,0.2304,0.2301,0,0,0,0,0,0,0.2388,0.2364,0.2364,0.2334,0.2298,0.2244,0.2211,0.221,0.22,0.2208,0.2222,0.2228,0.2243,0.2258,0.2263,0.2274,0.2281,0.2281,0.2273,0.227,0.2268,0.2275,0.2274,0,0,0,0,0,0.2393,0.238,0.2349,0.232,0.2304,0.227,0.2246,0.2231,0.2216,0.2209,0.222,0.2233,0.2243,0.2259,0.2263,0.2289,0.23,0.2295,0.2293,0.2291,0.2301,0.2295,0.2294,0.2307,0.2307,0.2307,0,0,0.2368,0.2364,0.2346,0.232,0.2287,0.2263,0.2253,0.2219,0.2219,0.2227,0.2229,0.2231,0.2245,0.225,0.226,0.2269,0.2296,0.229,0.2288,0.2299,0.2293,0.2292,0.2291,0.2306,0.2306,0.2307,0,0,0.2326,0.2325,0.2303,0.2285,0.2258,0.225,0.225,0.2217,0.2218,0.2226,0.2225,0.2229,0.2253,0.2249,0.2257,0.2254,0.228,0.2257,0.2266,0.226,0.2259,0.2258,0.2286,0.2288,0.2263,0.2263,0.2263,0,0.2292,0.2286,0.2281,0.2263,0.2252,0.2253,0.2235,0.2232,0.2218,0.2233,0.2228,0.2238,0.225,0.2261,0.2248,0.2253,0.2263,0.2277,0.2258,0.2258,0.2257,0.2286,0.2288,0.2262,0.2262,0.2263,0.2263,0,0.2248,0.2239,0.2219,0.2217,0.2208,0.2186,0.2198,0.2206,0.2229,0.2232,0.2247,0.2241,0.2251,0.2246,0.2252,0.2254,0.2268,0.2252,0.2268,0.2256,0.2286,0.2289,0.2262,0.2262,0.2262,0.2262,0,0,0.2169,0.2185,0.218,0.2185,0.2193,0.218,0.2203,0.222,0.2242,0.224,0.2258,0.2257,0.2261,0.2268,0.2266,0.2259,0.2267,0.2258,0.2258,0.2294,0.2279,0.23,0.2305,0.2244,0.2244,0.2244,0.2308,0,0.2129,0.2119,0.2144,0.2131,0.212,0.2156,0.2182,0.221,0.2234,0.2251,0.2265,0.227,0.227,0.2269,0.2266,0.2261,0.2271,0.2253,0.228,0.2282,0.2307,0.2307,0.2214,0.2262,0.231,0.2311,0.2311,0,0.2078,0.209,0.2082,0.2122,0.2122,0.2125,0.2181,0.2201,0.2244,0.2265,0.2278,0.2286,0.2296,0.228,0.2293,0.2282,0.229,0.2282,0.2284,0.2309,0.2306,0.2278,0.2266,0.2133,0.2315,0.2315,0.2315,0,0.204,0.2047,0.2058,0.2059,0.2099,0.2117,0.2149,0.2198,0.2228,0.2262,0.2278,0.2296,0.2302,0.2303,0.232,0.2302,0.233,0.2303,0.2336,0.2339,0.227,0.2266,0.2137,0.2312,0.2312,0.2312,0.2311,0,0.1995,0.1989,0.2039,0.203,0.2058,0.2096,0.2124,0.2164,0.221,0.2243,0.2275,0.2297,0.2303,0.2328,0.2333,0.2361,0.2351,0.235,0.2353,0.2266,0.2262,0.2153,0.2125,0.2314,0.2313,0.2313,0.2313,0,0.1933,0.196,0.1965,0.2015,0.203,0.2047,0.2101,0.2129,0.2179,0.2216,0.2229,0.2296,0.2329,0.2352,0.2363,0.2384,0.2324,0.241,0.2333,0.2326,0.2224,0.2201,0.2111,0.2053,0.2451,0.2452,0.2452,0,0.1902,0.1899,0.1947,0.1961,0.1975,0.2006,0.204,0.21,0.2128,0.2218,0.2238,0.2293,0.2335,0.2391,0.2413,0.2445,0.2333,0.2389,0.233,0.2214,0.219,0.2124,0.2075,0.2241,0.224,0.2239,0.2239,0,0.1843,0.1865,0.1883,0.1916,0.1941,0.1974,0.2015,0.203,0.2115,0.2144,0.2212,0.2254,0.2344,0.2339,0.2402,0.2404,0.2253,0.2374,0.2243,0.2018,0.1945,0.189,0.2233,0.2231,0.2231,0.2232,0.2232,0.2233,0.181,0.1813,0.1848,0.1871,0.1908,0.1938,0.1927,0.1979,0.2008,0.2041,0.2135,0.2164,0.2216,0.2288,0.2286,0.2189,0.2223,0.2095,0.2085,0.2033,0.194,0.2298,0.2304,0.2305,0.2306,0.2307,0.2308,0,0.1762,0.1776,0.1804,0.1825,0.1841,0.1881,0.1912,0.1886,0.188,0.196,0.1988,0.2003,0.1981,0.1996,0.1969,0.1897,0.1816,0.1805,0.1636,0.1609,0.1899,0.1849,0.1766,0.1766,0.1767,0.1767,0.1767,0.1767,0.1739,0.1736,0.175,0.1749,0.1768,0.1752,0.1749,0.1725,0.1753,0.1734,0.1744,0.1775,0.1799,0.171,0.1578,0.1545,0.1399,0.1374,0.1366,0.15,0.1523,0.1544,0.1483,0.1325,0.1325,0.0981,0.0978,0.0976]},{"header":{"parameterUnit":"m.s-1","parameterCategory":2,"la1":30.2991,"la2":30.254,"lo1":-89.0895,"lo2":-89.0444,"dy":0.0017,"dx":0.0017,"nx":28,"ny":28,"refTime":"2024-03-02T09:00:00:Z","depth":"0","parameterNumber":3,"parameterNumberName":"V-component_of_CURRENTS"},"data":[0,0,0,0,0,0,0,0,0,0,0,0,0,0,0,0,0,0,0,0,0,0,0,0,0,0,0,0,0,0,0,0,0,0,0,0,0,0,0,0,0,0,0,0,0,0,0,0,0,0,0,0,0,0,0,0,0,0,-0.1361,-0.1361,0,-0.1309,-0.1309,-0.1308,-0.1292,-0.1292,-0.1293,-0.1293,-0.1601,-0.1608,-0.1616,0,0,0,0,0,0,0,0,0,0,0,0,0,-0.1295,-0.1298,-0.1361,-0.1361,-0.136,-0.131,-0.1309,-0.1308,-0.1292,-0.1292,-0.1293,-0.1293,-0.1598,-0.1607,-0.1617,0,0,0,0,0,0,0,0,0,0,0,0,0,-0.1292,-0.1298,-0.1361,-0.1346,-0.1344,-0.131,-0.1309,-0.1308,-0.1292,-0.1292,-0.1293,-0.1293,-0.1595,-0.1607,-0.1618,-0.1683,0,0,-0.1655,-0.166,0,0,0,0,0,0,0,0,-0.1292,-0.1294,-0.1349,-0.1347,-0.1345,-0.1308,-0.1398,-0.1451,-0.1292,-0.1311,-0.1293,-0.1293,-0.1536,-0.1553,-0.1536,-0.1698,-0.1711,-0.1656,-0.1663,-0.1668,-0.1671,0,0,0,0,0,0,0,-0.1293,-0.1296,-0.134,-0.1348,-0.1346,-0.129,-0.1292,-0.1406,-0.1429,-0.131,-0.1309,-0.1303,-0.1538,-0.1524,-0.1545,-0.1715,-0.1655,-0.1666,-0.1673,-0.1678,-0.1995,-0.1996,0,0,0,0,0,0,-0.1308,-0.1297,-0.1342,-0.1339,-0.132,-0.1292,-0.1293,-0.1319,-0.1419,-0.1432,-0.1303,-0.1303,-0.1504,-0.1531,-0.1556,-0.1694,-0.1668,-0.1679,-0.1686,-0.1994,-0.1995,-0.1997,0,0,0,0,0,0,-0.1307,-0.1314,-0.1344,-0.1314,-0.1315,-0.1294,-0.1322,-0.1318,-0.1302,-0.141,-0.143,-0.1291,-0.1505,-0.1539,-0.166,-0.1705,-0.1684,-0.1695,-0.1992,-0.1994,-0.1996,-0.1938,0,0,0,0,0,0,-0.1306,-0.1315,-0.1322,-0.1317,-0.1317,-0.1317,-0.1321,-0.1317,-0.1299,-0.1298,-0.1408,-0.1435,-0.1508,-0.1641,-0.1671,-0.1721,-0.1705,-0.199,-0.1993,-0.1995,-0.1939,-0.1938,-0.1938,0,0,0,0,0,-0.1305,-0.1313,-0.1324,-0.1327,-0.1335,-0.1316,-0.131,-0.1295,-0.1298,-0.1284,-0.1369,-0.1432,-0.1678,-0.1651,-0.1687,-0.1741,-0.1989,-0.1992,-0.1995,-0.1939,-0.1938,-0.1938,0,0,0,0,0,0,-0.127,-0.1312,-0.1324,-0.1341,-0.1328,-0.1314,-0.1291,-0.1291,-0.1335,-0.1344,-0.1453,-0.1487,-0.1602,-0.168,-0.1648,-0.1837,-0.1844,-0.1854,-0.1789,-0.179,-0.1789,-0.1734,-0.1714,0,0,0,0,0,-0.1274,-0.1297,-0.1314,-0.1316,-0.1316,-0.1304,-0.129,-0.1282,-0.1321,-0.1334,-0.1431,-0.1538,-0.164,-0.1717,-0.1809,-0.1929,-0.1921,-0.1985,-0.1984,-0.1983,-0.1962,-0.1979,-0.1977,-0.2006,-0.2006,-0.2006,0,0,-0.1248,-0.128,-0.1284,-0.131,-0.1298,-0.1292,-0.1296,-0.127,-0.129,-0.1375,-0.1457,-0.1538,-0.1664,-0.1777,-0.1839,-0.1855,-0.1966,-0.1987,-0.1985,-0.1964,-0.1982,-0.1978,-0.1975,-0.2008,-0.2008,-0.2007,0,0,-0.12,-0.1251,-0.1244,-0.1244,-0.1239,-0.1258,-0.1255,-0.1267,-0.1298,-0.1376,-0.1443,-0.1538,-0.1712,-0.1796,-0.1865,-0.1924,-0.1947,-0.1972,-0.1953,-0.1971,-0.1967,-0.1964,-0.1914,-0.1907,-0.1991,-0.1991,-0.1991,0,-0.1159,-0.1175,-0.1226,-0.1214,-0.1218,-0.125,-0.1233,-0.1272,-0.1329,-0.1375,-0.1404,-0.1605,-0.1717,-0.1842,-0.1859,-0.1924,-0.1904,-0.1943,-0.1965,-0.1962,-0.196,-0.191,-0.1903,-0.1989,-0.1989,-0.1989,-0.1989,0,-0.1106,-0.1108,-0.1098,-0.113,-0.1152,-0.1129,-0.1208,-0.1254,-0.1321,-0.1364,-0.1487,-0.1611,-0.1722,-0.179,-0.1852,-0.1914,-0.189,-0.194,-0.1952,-0.1952,-0.1901,-0.1894,-0.1985,-0.1986,-0.1987,-0.1987,0,0,-0.1016,-0.1055,-0.1045,-0.1045,-0.1104,-0.1112,-0.1194,-0.1265,-0.1299,-0.1404,-0.1453,-0.1637,-0.1671,-0.1748,-0.184,-0.1879,-0.185,-0.1899,-0.1901,-0.1821,-0.1822,-0.1699,-0.168,-0.1895,-0.1895,-0.1895,-0.1778,0,-0.0937,-0.0915,-0.0976,-0.0959,-0.0953,-0.105,-0.1127,-0.1211,-0.1298,-0.1363,-0.1498,-0.1571,-0.1671,-0.1704,-0.1764,-0.1826,-0.1835,-0.1872,-0.1858,-0.1856,-0.1726,-0.1671,-0.154,-0.1416,-0.1772,-0.1771,-0.177,0,-0.0856,-0.0857,-0.0836,-0.0895,-0.0906,-0.0924,-0.1044,-0.1104,-0.1229,-0.1295,-0.1385,-0.1462,-0.1555,-0.1619,-0.1707,-0.1718,-0.1751,-0.1794,-0.1792,-0.1689,-0.1722,-0.1486,-0.1391,-0.1464,-0.176,-0.1761,-0.1761,0,-0.0768,-0.0764,-0.0759,-0.0765,-0.0843,-0.0875,-0.0935,-0.1066,-0.111,-0.1209,-0.1217,-0.1356,-0.1375,-0.1475,-0.1572,-0.1628,-0.1613,-0.1711,-0.1623,-0.1613,-0.1503,-0.1483,-0.1452,-0.1731,-0.1731,-0.1732,-0.1732,0,-0.0678,-0.0654,-0.0702,-0.0681,-0.0689,-0.0784,-0.0806,-0.0897,-0.0973,-0.0977,-0.114,-0.1137,-0.1333,-0.1367,-0.1489,-0.1495,-0.1545,-0.157,-0.1571,-0.1476,-0.1456,-0.1519,-0.159,-0.1727,-0.1728,-0.1729,-0.173,0,-0.0577,-0.0603,-0.0576,-0.0624,-0.0636,-0.0641,-0.0695,-0.0708,-0.0795,-0.0787,-0.0798,-0.0925,-0.0959,-0.1121,-0.1233,-0.1331,-0.138,-0.1385,-0.1218,-0.12,-0.12,-0.1272,-0.1193,-0.1211,-0.1264,-0.126,-0.1257,0,-0.0528,-0.0498,-0.0511,-0.0493,-0.0499,-0.0507,-0.052,-0.061,-0.0598,-0.0644,-0.061,-0.0639,-0.0645,-0.0748,-0.0902,-0.1017,-0.1176,-0.0983,-0.1093,-0.1128,-0.1213,-0.128,-0.131,-0.0916,-0.091,-0.0905,-0.0901,0,-0.0416,-0.0423,-0.0412,-0.037,-0.0353,-0.0348,-0.034,-0.0301,-0.0376,-0.0347,-0.0293,-0.0287,-0.0356,-0.0397,-0.0546,-0.0661,-0.0969,-0.0887,-0.0993,-0.0962,-0.0965,-0.1005,-0.1036,-0.0859,-0.0864,-0.0867,-0.0869,-0.0871,-0.0335,-0.0307,-0.0289,-0.0254,-0.023,-0.0189,-0.016,-0.0117,-0.0058,-0.0003,-0.0002,0.0059,-0.0021,-0.0196,-0.0339,-0.0517,-0.0641,-0.0618,-0.0702,-0.0768,-0.0779,-0.0665,-0.0463,-0.0465,-0.0467,-0.0468,-0.0469,0,-0.0242,-0.0219,-0.0175,-0.0137,-0.0089,-0.0112,-0.0052,-0.0007,0.0112,0.0215,0.0293,0.0368,0.0277,0.0069,-0.0157,-0.0324,-0.0461,-0.045,-0.056,-0.0608,-0.0544,-0.0526,-0.0244,-0.0244,-0.0244,-0.0244,-0.0244,-0.0244,-0.0189,-0.0131,-0.0119,-0.002,0.0008,0.0057,0.0092,0.0188,0.0277,0.0455,0.0563,0.0619,0.0519,0.0102,-0.0213,-0.0314,-0.0523,-0.0473,-0.0654,-0.0664,-0.069,-0.0714,-0.0716,-0.0478,-0.0479,-0.0662,-0.0664,-0.0666]}],[{"header":{"parameterUnit":"m.s-1","parameterCategory":2,"la1":30.2991,"la2":30.254,"lo1":-89.0895,"lo2":-89.0444,"dy":0.0017,"dx":0.0017,"nx":28,"ny":28,"refTime":"2024-03-02T09:00:00:Z","depth":"2","parameterNumber":2,"parameterNumberName":"U-component_of_CURRENTS"},"data":[0,0,0,0,0,0,0,0,0,0,0,0,0,0,0,0,0,0,0,0,0,0,0,0,0,0,0,0,0,0,0,0,0,0,0,0,0,0,0,0,0,0,0,0,0,0,0,0,0,0,0,0,0,0,0,0,0,0,0.1324,0.1325,0,0.1463,0.1465,0.1467,0.1526,0.1525,0.1524,0.1524,0.1618,0.1621,0.1624,0,0,0,0,0,0,0,0,0,0,0,0,0,0.1312,0.1311,0.1324,0.1325,0.1327,0.1463,0.1465,0.1467,0.1526,0.1525,0.1524,0.1523,0.1617,0.1621,0.1625,0,0,0,0,0,0,0,0,0,0,0,0,0,0.1375,0.1311,0.1324,0.1369,0.1374,0.1462,0.1465,0.1468,0.1526,0.1525,0.1524,0.1523,0.1616,0.1621,0.1625,0.1675,0,0,0.164,0.1642,0,0,0,0,0,0,0,0,0.1371,0.1375,0.1361,0.1366,0.1372,0.1472,0.1496,0.1533,0.1526,0.1473,0.1524,0.1522,0.1563,0.1572,0.1608,0.1679,0.1683,0.164,0.1643,0.1645,0.1646,0,0,0,0,0,0,0,0.1366,0.1371,0.1384,0.1362,0.1369,0.1452,0.1458,0.1505,0.1525,0.1477,0.1481,0.149,0.1566,0.1603,0.161,0.1685,0.164,0.1644,0.1647,0.1649,0.1762,0.1762,0,0,0,0,0,0,0.133,0.1365,0.1379,0.1387,0.1364,0.1451,0.1459,0.1444,0.1525,0.1536,0.149,0.1492,0.1595,0.1604,0.1613,0.169,0.1645,0.1649,0.1652,0.1762,0.1762,0.1762,0,0,0,0,0,0,0.1329,0.1329,0.1373,0.1378,0.1389,0.145,0.1436,0.1448,0.1497,0.1535,0.1545,0.1527,0.1595,0.1607,0.1655,0.1693,0.1651,0.1656,0.1762,0.1762,0.1762,0.1833,0,0,0,0,0,0,0.1328,0.1327,0.1328,0.1374,0.1387,0.1434,0.1436,0.1451,0.15,0.1504,0.1569,0.1576,0.1595,0.1647,0.1659,0.1698,0.1659,0.1762,0.1762,0.1762,0.1831,0.1836,0.1841,0,0,0,0,0,0.1326,0.1339,0.1326,0.133,0.1376,0.1435,0.1451,0.1496,0.1503,0.1535,0.1564,0.1575,0.1657,0.1652,0.1666,0.1707,0.1761,0.1762,0.1762,0.1829,0.1835,0.1841,0,0,0,0,0,0,0.1352,0.1346,0.1334,0.1346,0.1383,0.1443,0.149,0.1507,0.1562,0.1571,0.1594,0.1604,0.1662,0.1664,0.1657,0.1733,0.1705,0.1709,0.1751,0.1757,0.1762,0.1788,0.1663,0,0,0,0,0,0.1347,0.1344,0.136,0.1375,0.1394,0.1441,0.1477,0.1503,0.1547,0.1573,0.1611,0.1641,0.1675,0.1697,0.1733,0.1784,0.1787,0.1809,0.1814,0.1818,0.1844,0.1865,0.1875,0.1764,0.1764,0.1764,0,0,0.1354,0.1359,0.1354,0.1379,0.1418,0.1455,0.1463,0.1526,0.1561,0.1573,0.1647,0.1674,0.1692,0.1749,0.1773,0.1756,0.1849,0.1819,0.1823,0.1847,0.1866,0.1878,0.1887,0.1764,0.1764,0.1764,0,0,0.138,0.1378,0.1384,0.1414,0.1463,0.1497,0.151,0.1572,0.1607,0.1666,0.168,0.1732,0.178,0.1815,0.183,0.1881,0.1879,0.1874,0.1927,0.1946,0.1957,0.1966,0.1978,0.1988,0.1871,0.1872,0.1872,0,0.1383,0.1387,0.1406,0.1434,0.146,0.1508,0.1537,0.1591,0.1661,0.1692,0.1689,0.1785,0.1817,0.1881,0.1905,0.1901,0.1898,0.191,0.1956,0.1965,0.1974,0.1984,0.1994,0.1875,0.1875,0.1874,0.1874,0,0.1406,0.1422,0.1446,0.1471,0.1514,0.1557,0.1608,0.1668,0.1707,0.1747,0.1825,0.1872,0.1921,0.1939,0.195,0.2022,0.1996,0.1967,0.195,0.199,0.1997,0.2006,0.188,0.1879,0.1878,0.1877,0,0,0.1362,0.1433,0.1441,0.1461,0.1531,0.157,0.1643,0.1712,0.1772,0.1835,0.1893,0.198,0.2008,0.2028,0.2047,0.2084,0.2153,0.2059,0.2058,0.2087,0.2189,0.2072,0.2071,0.2125,0.2127,0.2128,0.2169,0,0.1364,0.1414,0.145,0.151,0.1542,0.1605,0.1669,0.1747,0.182,0.1899,0.1952,0.2024,0.2034,0.2073,0.2112,0.2144,0.218,0.2145,0.2133,0.2133,0.2038,0.2079,0.1899,0.1912,0.2178,0.2179,0.218,0,0.1362,0.14,0.1447,0.1527,0.1546,0.1592,0.1706,0.177,0.1889,0.194,0.2018,0.2068,0.2154,0.2144,0.2223,0.2192,0.221,0.2228,0.2228,0.2108,0.2034,0.1914,0.1918,0.2195,0.2194,0.2193,0.2192,0,0.1328,0.1397,0.1435,0.1458,0.1558,0.1597,0.1657,0.1784,0.1843,0.1975,0.2027,0.2121,0.2155,0.2209,0.2246,0.2244,0.2302,0.2291,0.2205,0.2196,0.2038,0.2011,0.2354,0.2354,0.2354,0.2353,0.2353,0,0.1305,0.1341,0.1423,0.1444,0.15,0.158,0.1663,0.1745,0.1857,0.1917,0.204,0.2082,0.2173,0.2212,0.2255,0.2239,0.2299,0.2236,0.2205,0.2052,0.2028,0.2265,0.2254,0.2355,0.2355,0.2354,0.2354,0,0.127,0.1315,0.1365,0.1458,0.1485,0.1528,0.163,0.1696,0.1814,0.1892,0.193,0.2046,0.2103,0.2176,0.2245,0.2218,0.2245,0.2222,0.2031,0.1978,0.2135,0.2127,0.2162,0.2159,0.2156,0.2153,0.2151,0,0.1261,0.1283,0.1363,0.1378,0.1415,0.1486,0.1535,0.1654,0.1714,0.1848,0.1864,0.1961,0.1982,0.2033,0.2034,0.2069,0.2167,0.1915,0.1893,0.2152,0.2119,0.2116,0.2113,0.1717,0.1711,0.1707,0.1703,0,0.1243,0.1272,0.1302,0.1342,0.1377,0.1423,0.1493,0.1522,0.165,0.169,0.1727,0.1757,0.1809,0.174,0.1779,0.1786,0.19,0.1821,0.2143,0.1777,0.173,0.1698,0.171,0.1663,0.1667,0.167,0.1672,0.1674,0.1228,0.1229,0.1268,0.1296,0.1348,0.1375,0.1362,0.142,0.1449,0.1474,0.1531,0.1501,0.1542,0.1496,0.1479,0.1495,0.1641,0.1601,0.1616,0.1636,0.1562,0.151,0.1388,0.1391,0.1393,0.1394,0.1396,0,0.1194,0.1195,0.1221,0.1239,0.1263,0.132,0.1349,0.13,0.127,0.1274,0.1257,0.1139,0.11,0.1188,0.1127,0.1142,0.1155,0.1129,0.1138,0.1177,0.1212,0.1118,0.0826,0.0824,0.0823,0.0822,0,0,0.1167,0.1158,0.1165,0.1168,0.1186,0.1172,0.1163,0.1096,0.1074,0.0957,0.0907,0.0964,0.1065,0.0892,0.0905,0.0848,0.1002,0.0817,0.1268,0.1311,0.1344,0.1473,0.137,0,0,0,0,0]},{"header":{"parameterUnit":"m.s-1","parameterCategory":2,"la1":30.2991,"la2":30.254,"lo1":-89.0895,"lo2":-89.0444,"dy":0.0017,"dx":0.0017,"nx":28,"ny":28,"refTime":"2024-03-02T09:00:00:Z","depth":"2","parameterNumber":3,"parameterNumberName":"V-component_of_CURRENTS"},"data":[0,0,0,0,0,0,0,0,0,0,0,0,0,0,0,0,0,0,0,0,0,0,0,0,0,0,0,0,0,0,0,0,0,0,0,0,0,0,0,0,0,0,0,0,0,0,0,0,0,0,0,0,0,0,0,0,0,0,0.0273,0.027,0,0.0065,0.0064,0.0062,-0.0031,-0.0031,-0.0032,-0.0032,-0.003,-0.0029,-0.0029,0,0,0,0,0,0,0,0,0,0,0,0,0,0.0364,0.0365,0.0273,0.027,0.0266,0.0066,0.0064,0.0062,-0.0031,-0.0031,-0.0032,-0.0033,-0.003,-0.0029,-0.0029,0,0,0,0,0,0,0,0,0,0,0,0,0,0.0267,0.0365,0.0274,0.0189,0.0179,0.0066,0.0064,0.0061,-0.0031,-0.0031,-0.0032,-0.0033,-0.003,-0.003,-0.0029,-0.0006,0,0,-0.0026,-0.0026,0,0,0,0,0,0,0,0,0.0272,0.0265,0.0205,0.0195,0.0183,0.0035,0.0096,0.0046,-0.003,0.0058,-0.0032,-0.0033,0.0006,0.0004,-0.0024,-0.0006,-0.0006,-0.0026,-0.0025,-0.0025,-0.0025,0,0,0,0,0,0,0,0.028,0.0271,0.02,0.0201,0.0188,0.0084,0.0073,0.0085,0.005,0.0051,0.0041,0.0004,0.0003,-0.0025,-0.0024,-0.0006,-0.0026,-0.0025,-0.0025,-0.0024,0.0011,0.0011,0,0,0,0,0,0,0.0301,0.028,0.0206,0.0193,0.0217,0.0083,0.0071,0.009,0.0045,0.0033,0.0005,0.0001,-0.0026,-0.0025,-0.0024,-0.0006,-0.0025,-0.0024,-0.0024,0.001,0.0011,0.0011,0,0,0,0,0,0,0.0305,0.0299,0.0214,0.022,0.0201,0.0084,0.0106,0.0086,0.0024,0.0007,0.0,-0.0043,-0.0026,-0.0025,-0.0014,-0.0005,-0.0024,-0.0023,0.001,0.001,0.0011,0.0036,0,0,0,0,0,0,0.0309,0.0303,0.0303,0.0224,0.0201,0.0147,0.0105,0.0083,-0.0,-0.0009,-0.0035,-0.0035,-0.0027,-0.0015,-0.0013,-0.0005,-0.0022,0.0009,0.001,0.0011,0.0035,0.0038,0.004,0,0,0,0,0,0.0314,0.0318,0.0306,0.0294,0.0215,0.0146,0.0126,0.0042,-0.0002,-0.0019,-0.0029,-0.0036,-0.0009,-0.0013,-0.0011,-0.0003,0.0009,0.001,0.0011,0.0034,0.0037,0.004,0,0,0,0,0,0,0.0328,0.0305,0.0291,0.0281,0.0218,0.0126,0.0085,0.0025,-0.0007,-0.0026,-0.0026,-0.0024,-0.001,-0.0011,-0.0017,0.0009,-0.0003,-0.0002,0.0013,0.0017,0.0019,0.0038,-0.0022,0,0,0,0,0,0.0342,0.0357,0.0298,0.0282,0.0262,0.0171,0.0119,0.0054,0.0012,-0.0009,-0.0016,-0.002,-0.0001,0.0002,0.0015,0.0029,0.0004,0.0034,0.0036,0.0039,0.0055,0.0049,0.0053,0.0014,0.0014,0.0014,0,0,0.0332,0.0322,0.0322,0.0287,0.0237,0.0209,0.0141,0.0054,0.0033,0.0004,-0.0003,-0.0011,0.0005,0.0026,0.0031,0.0024,0.0022,0.004,0.0042,0.0057,0.0051,0.0055,0.0058,0.0015,0.0015,0.0014,0,0,0.0316,0.0331,0.0331,0.0298,0.0215,0.0188,0.0163,0.0075,0.0048,0.0029,0.0014,0.0015,0.0026,0.0047,0.006,0.0084,0.0038,0.007,0.0099,0.0092,0.0096,0.0099,0.001,0.0005,0.0069,0.007,0.007,0,0.03,0.0313,0.0305,0.0286,0.0267,0.0192,0.0172,0.014,0.0062,0.0072,0.0034,0.0047,0.0048,0.0096,0.0098,0.0093,0.0047,0.0086,0.0096,0.0099,0.0101,0.0011,0.0005,0.0071,0.0071,0.0071,0.007,0,0.0292,0.0282,0.0277,0.0281,0.0263,0.0223,0.0199,0.018,0.0145,0.012,0.0132,0.0119,0.0128,0.0123,0.0119,0.014,0.0082,0.01,0.0089,0.0107,0.0009,0.0002,0.0073,0.0072,0.0072,0.0072,0,0,0.0304,0.0285,0.0278,0.0283,0.0258,0.0246,0.0258,0.0267,0.0277,0.0222,0.0237,0.0252,0.0212,0.0223,0.0197,0.0189,0.0139,0.0145,0.0143,0.0056,0.0051,0.0131,0.013,0.0152,0.0152,0.0153,-0.0047,0,0.0297,0.0286,0.029,0.029,0.0288,0.0285,0.0322,0.0315,0.0312,0.0314,0.0292,0.029,0.0261,0.0233,0.0228,0.0173,0.0133,0.0187,0.0049,0.0044,0.0115,0.0132,0.0135,-0.0029,-0.0054,-0.0055,-0.0056,0,0.029,0.0289,0.0293,0.0322,0.0331,0.0339,0.0409,0.0415,0.0426,0.0413,0.0399,0.0357,0.0329,0.0288,0.0205,0.0232,0.0143,0.0089,0.0081,0.0156,0.0116,-0.0038,-0.004,-0.0067,-0.0066,-0.0065,-0.0065,0,0.0316,0.0301,0.0326,0.0327,0.0347,0.0376,0.0406,0.0441,0.047,0.045,0.045,0.0406,0.036,0.028,0.019,0.0168,0.009,0.0044,0.002,0.0018,0.0001,0.0002,-0.0019,-0.0019,-0.0019,-0.0018,-0.0018,0,0.0334,0.0338,0.0332,0.0341,0.0392,0.0397,0.0452,0.0481,0.0497,0.0546,0.0486,0.0491,0.0361,0.0307,0.0197,0.0116,0.0093,0.0031,0.0003,0.0004,0.0008,-0.002,-0.0018,-0.0026,-0.0024,-0.0023,-0.0021,0,0.0345,0.0342,0.0357,0.0381,0.0395,0.0428,0.0479,0.0519,0.0533,0.0579,0.0565,0.0527,0.0453,0.035,0.0204,0.014,0.0044,0.0017,-0.0001,-0.0022,-0.0067,-0.0062,-0.0101,-0.0099,-0.0098,-0.0096,-0.0095,0,0.0351,0.0351,0.0382,0.0417,0.0429,0.0461,0.05,0.0524,0.0566,0.0622,0.0652,0.0591,0.0575,0.0409,0.0272,0.0096,0.0079,-0.0002,-0.0002,-0.0037,-0.0062,-0.0059,-0.0055,-0.0089,-0.0088,-0.0087,-0.0086,0,0.0355,0.0365,0.0396,0.0446,0.0491,0.0533,0.0583,0.0615,0.0662,0.0718,0.0769,0.0754,0.0615,0.0459,0.0284,0.0175,0.0034,0.0013,-0.0009,-0.001,-0.0023,-0.0048,-0.0046,-0.0078,-0.0079,-0.008,-0.008,-0.008,0.0364,0.039,0.0429,0.0487,0.0536,0.0594,0.0639,0.069,0.0757,0.0838,0.0831,0.0818,0.0661,0.0419,0.0271,0.0101,0.0088,-0.0005,-0.0011,-0.0016,0.0081,0.0079,0.0052,0.0052,0.0052,0.0052,0.0051,0,0.038,0.0416,0.0472,0.0542,0.06,0.0614,0.0694,0.0739,0.0815,0.0864,0.0893,0.0758,0.061,0.0432,0.019,0.0063,0.0011,0.0011,-0.0045,-0.0049,-0.0054,0.0039,-0.0003,-0.0003,-0.0004,-0.0004,0,0,0.0395,0.0446,0.0471,0.0559,0.0617,0.0687,0.073,0.0801,0.0839,0.0878,0.0858,0.0824,0.0635,0.0446,0.0268,0.0125,0.0061,0.0096,0.0155,0.0106,0.0102,-0.0042,0.0101,0,0,0,0,0]}],[{"header":{"parameterUnit":"m.s-1","parameterCategory":2,"la1":30.2991,"la2":30.254,"lo1":-89.0895,"lo2":-89.0444,"dy":0.0017,"dx":0.0017,"nx":28,"ny":28,"refTime":"2024-03-02T09:00:00:Z","depth":"4","parameterNumber":2,"parameterNumberName":"U-component_of_CURRENTS"},"data":[0,0,0,0,0,0,0,0,0,0,0,0,0,0,0,0,0,0,0,0,0,0,0,0,0,0,0,0,0,0,0,0,0,0,0,0,0,0,0,0,0,0,0,0,0,0,0,0,0,0,0,0,0,0,0,0,0,0,0.0478,0.0478,0,0.0495,0.0494,0.0494,0.0521,0.0522,0.0523,0.0524,0.05,0.0498,0.0497,0,0,0,0,0,0,0,0,0,0,0,0,0,0.041,0.0411,0.0478,0.0478,0.0479,0.0495,0.0494,0.0494,0.0521,0.0522,0.0523,0.0524,0.05,0.0498,0.0497,0,0,0,0,0,0,0,0,0,0,0,0,0,0.043,0.0412,0.0478,0.0498,0.05,0.0495,0.0494,0.0494,0.0521,0.0522,0.0524,0.0525,0.0501,0.0499,0.0496,0.0454,0,0,0.0489,0.0488,0,0,0,0,0,0,0,0,0.0429,0.0432,0.0494,0.0497,0.0499,0.0512,0.0462,0.048,0.052,0.0508,0.0524,0.0526,0.0502,0.05,0.0493,0.0452,0.0451,0.0489,0.0488,0.0487,0.0486,0,0,0,0,0,0,0,0.0428,0.0431,0.0479,0.0495,0.0498,0.0487,0.0491,0.0465,0.0492,0.0509,0.0512,0.0522,0.0503,0.0495,0.0493,0.0451,0.0489,0.0487,0.0486,0.0485,0.0479,0.0481,0,0,0,0,0,0,0.0437,0.043,0.0479,0.048,0.0473,0.0487,0.0492,0.0502,0.0493,0.0495,0.052,0.0523,0.0499,0.0495,0.0492,0.0516,0.0487,0.0485,0.0483,0.0478,0.048,0.0481,0,0,0,0,0,0,0.0436,0.0441,0.0478,0.0459,0.0464,0.0488,0.0499,0.0502,0.0519,0.0503,0.0504,0.0538,0.05,0.0495,0.0494,0.0513,0.0484,0.0481,0.0477,0.0479,0.048,0.0516,0,0,0,0,0,0,0.0434,0.0441,0.0451,0.046,0.0466,0.0487,0.0498,0.0501,0.0523,0.0527,0.0517,0.0515,0.05,0.0498,0.0492,0.0509,0.048,0.0475,0.0478,0.048,0.0513,0.0519,0.0523,0,0,0,0,0,0.0431,0.044,0.0452,0.0458,0.048,0.0488,0.0489,0.0507,0.0523,0.0527,0.053,0.0517,0.0509,0.0496,0.0489,0.0506,0.0474,0.0477,0.048,0.0511,0.0517,0.0523,0,0,0,0,0,0,0.0424,0.0445,0.0457,0.0475,0.0488,0.0495,0.0502,0.0516,0.052,0.0528,0.0517,0.0515,0.0527,0.051,0.0497,0.0516,0.0495,0.0496,0.0521,0.0527,0.0532,0.0543,0.0478,0,0,0,0,0,0.0426,0.0435,0.0455,0.047,0.0478,0.0493,0.0501,0.0514,0.052,0.0525,0.0527,0.0528,0.0527,0.0524,0.0518,0.0512,0.0526,0.0525,0.053,0.0535,0.0541,0.06,0.0611,0.049,0.049,0.049,0,0,0.0431,0.0442,0.045,0.0469,0.0479,0.0492,0.05,0.0517,0.053,0.0518,0.0539,0.0543,0.0532,0.0538,0.0542,0.0528,0.0574,0.0538,0.0542,0.0546,0.0604,0.0616,0.0626,0.0492,0.0492,0.0491,0,0,0.0435,0.0452,0.046,0.0471,0.0492,0.0498,0.051,0.0531,0.0542,0.0551,0.0562,0.0584,0.0567,0.0578,0.0575,0.0604,0.0604,0.0604,0.0629,0.0686,0.0696,0.0706,0.0727,0.0738,0.0602,0.0602,0.0602,0,0.0445,0.0459,0.0464,0.0476,0.049,0.0507,0.0523,0.0529,0.0551,0.0565,0.0565,0.0601,0.0589,0.0617,0.0627,0.0616,0.0637,0.0602,0.0693,0.0703,0.0712,0.0731,0.0743,0.0604,0.0604,0.0603,0.0603,0,0.0455,0.0472,0.0478,0.0499,0.0508,0.0525,0.0539,0.056,0.0577,0.0591,0.0633,0.0636,0.0668,0.0666,0.0643,0.0706,0.0696,0.0697,0.0677,0.0726,0.0743,0.0754,0.0607,0.0606,0.0605,0.0605,0,0,0.0474,0.0484,0.0491,0.0503,0.0524,0.0535,0.0555,0.0581,0.0617,0.0637,0.0686,0.0693,0.0725,0.0726,0.0731,0.0763,0.083,0.0753,0.0755,0.0771,0.0939,0.0854,0.0858,0.0854,0.0856,0.0858,0.092,0,0.0489,0.0506,0.0509,0.0537,0.055,0.0568,0.0582,0.0607,0.0639,0.0688,0.071,0.0758,0.0739,0.0774,0.0806,0.083,0.0865,0.0812,0.089,0.0892,0.081,0.0871,0.0866,0.0928,0.0931,0.0933,0.0934,0,0.0505,0.0514,0.0533,0.0555,0.0564,0.0587,0.0636,0.0654,0.071,0.0735,0.08,0.083,0.0888,0.087,0.0951,0.0921,0.0936,0.0945,0.0948,0.0866,0.0829,0.0872,0.0955,0.0953,0.0952,0.0951,0.0949,0,0.0505,0.0536,0.0549,0.0559,0.0583,0.0607,0.0631,0.068,0.0696,0.0796,0.0834,0.0914,0.096,0.101,0.1024,0.1006,0.1097,0.1081,0.1019,0.1012,0.1052,0.1041,0.1151,0.115,0.115,0.115,0.115,0,0.0511,0.053,0.056,0.0568,0.0599,0.062,0.067,0.0706,0.0761,0.0791,0.0876,0.0921,0.1001,0.1052,0.1063,0.1071,0.1142,0.1035,0.1034,0.1062,0.1052,0.1059,0.1048,0.1152,0.1152,0.1151,0.1151,0,0.05,0.0516,0.0538,0.0576,0.0594,0.0621,0.0669,0.07,0.0768,0.0822,0.0855,0.0939,0.1012,0.1068,0.1141,0.111,0.1135,0.1119,0.1134,0.113,0.0999,0.0989,0.1068,0.1066,0.1064,0.1062,0.1061,0,0.0492,0.05,0.0539,0.0548,0.057,0.0617,0.0634,0.0694,0.0722,0.0816,0.0827,0.0928,0.0982,0.102,0.1081,0.1122,0.1103,0.111,0.1062,0.1006,0.0997,0.0989,0.0982,0.1058,0.1057,0.1057,0.1056,0,0.0479,0.0495,0.0509,0.0524,0.055,0.0569,0.061,0.0622,0.0688,0.0758,0.0794,0.0845,0.0914,0.097,0.1012,0.1032,0.1107,0.109,0.1093,0.1048,0.0995,0.0986,0.0981,0.105,0.1051,0.1051,0.1052,0,0.0473,0.0476,0.0489,0.0499,0.0515,0.0508,0.0543,0.0571,0.0599,0.0699,0.0707,0.0812,0.0891,0.0922,0.0958,0.098,0.0964,0.0933,0.0944,0.0952,0.0886,0.08,0.0808,0,0,0,0,0,0.0463,0.0454,0.0458,0.0451,0.0456,0.0468,0.0507,0.0541,0.0619,0.0618,0.0656,0.0717,0.0779,0.0829,0.0832,0.0913,0.0971,0.0912,0.0941,0.1014,0.1021,0.0955,0,0,0,0,0,0,0.0449,0.0457,0.0448,0.0407,0.039,0.0392,0.0419,0.0469,0.0474,0.0559,0.0597,0.0663,0.0737,0.0767,0.0813,0.083,0.0831,0.0972,0.097,0.1009,0.1016,0.1022,0.0957,0,0,0,0,0]},{"header":{"parameterUnit":"m.s-1","parameterCategory":2,"la1":30.2991,"la2":30.254,"lo1":-89.0895,"lo2":-89.0444,"dy":0.0017,"dx":0.0017,"nx":28,"ny":28,"refTime":"2024-03-02T09:00:00:Z","depth":"4","parameterNumber":3,"parameterNumberName":"V-component_of_CURRENTS"},"data":[0,0,0,0,0,0,0,0,0,0,0,0,0,0,0,0,0,0,0,0,0,0,0,0,0,0,0,0,0,0,0,0,0,0,0,0,0,0,0,0,0,0,0,0,0,0,0,0,0,0,0,0,0,0,0,0,0,0,0.0394,0.0394,0,0.041,0.041,0.0411,0.0413,0.0412,0.0411,0.0411,0.043,0.0432,0.0433,0,0,0,0,0,0,0,0,0,0,0,0,0,0.0378,0.0379,0.0394,0.0394,0.0393,0.041,0.0411,0.0411,0.0413,0.0412,0.0411,0.041,0.043,0.0431,0.0433,0,0,0,0,0,0,0,0,0,0,0,0,0,0.0395,0.038,0.0394,0.0391,0.0391,0.0409,0.0411,0.0412,0.0413,0.0412,0.0411,0.041,0.043,0.0431,0.0433,0.0468,0,0,0.0439,0.044,0,0,0,0,0,0,0,0,0.0394,0.0397,0.0392,0.0391,0.0391,0.0402,0.0412,0.0428,0.0413,0.0412,0.0411,0.0409,0.0418,0.0421,0.0436,0.0469,0.047,0.0439,0.044,0.0441,0.0442,0,0,0,0,0,0,0,0.0393,0.0396,0.0407,0.0392,0.0391,0.0393,0.0395,0.0416,0.0426,0.0412,0.041,0.0402,0.0418,0.0434,0.0436,0.047,0.0439,0.0441,0.0442,0.0443,0.0485,0.0485,0,0,0,0,0,0,0.0379,0.0395,0.0407,0.0407,0.0382,0.0393,0.0396,0.0405,0.0426,0.0426,0.0403,0.0402,0.0431,0.0434,0.0437,0.0457,0.0441,0.0443,0.0444,0.0485,0.0485,0.0485,0,0,0,0,0,0,0.0379,0.038,0.0406,0.0395,0.0397,0.0394,0.0405,0.0406,0.0413,0.0418,0.0419,0.0407,0.043,0.0434,0.045,0.0458,0.0444,0.0445,0.0485,0.0485,0.0485,0.0511,0,0,0,0,0,0,0.0379,0.0381,0.039,0.0394,0.0397,0.0412,0.0406,0.0407,0.0407,0.0406,0.0422,0.0423,0.043,0.0447,0.0451,0.046,0.0447,0.0485,0.0485,0.0485,0.051,0.0512,0.0513,0,0,0,0,0,0.0378,0.0391,0.0391,0.0392,0.0408,0.0412,0.0415,0.0412,0.0408,0.0415,0.0423,0.0422,0.0449,0.0449,0.0454,0.0464,0.0485,0.0485,0.0485,0.0509,0.0512,0.0513,0,0,0,0,0,0,0.0385,0.0392,0.0392,0.0406,0.0405,0.0409,0.0416,0.0412,0.0428,0.0427,0.0433,0.0436,0.0451,0.0452,0.0451,0.0472,0.0463,0.0464,0.048,0.0482,0.0483,0.0481,0.0448,0,0,0,0,0,0.0391,0.0406,0.0404,0.0414,0.0416,0.0417,0.042,0.0417,0.0424,0.0429,0.0437,0.0445,0.0459,0.0464,0.0477,0.0497,0.0483,0.0501,0.0502,0.0504,0.0504,0.049,0.0491,0.0485,0.0485,0.0485,0,0,0.039,0.0399,0.0404,0.0416,0.0421,0.0425,0.0418,0.0421,0.0428,0.043,0.0448,0.0455,0.0465,0.0484,0.049,0.0485,0.0498,0.0504,0.0505,0.0504,0.049,0.0491,0.0491,0.0485,0.0485,0.0485,0,0,0.0395,0.0411,0.0423,0.0428,0.0429,0.0431,0.0428,0.0433,0.0442,0.046,0.0459,0.0464,0.0492,0.0493,0.05,0.0516,0.0508,0.0521,0.0531,0.0518,0.0519,0.0519,0.0501,0.0499,0.0521,0.0521,0.0521,0,0.0392,0.0414,0.0423,0.0434,0.0437,0.0431,0.0438,0.0449,0.0456,0.0469,0.0465,0.0495,0.0494,0.0515,0.0517,0.052,0.0513,0.0527,0.0521,0.0521,0.0521,0.0502,0.05,0.0522,0.0522,0.0522,0.0522,0,0.0403,0.0421,0.0428,0.0443,0.0449,0.0455,0.0461,0.0475,0.0482,0.0488,0.0513,0.0517,0.0532,0.053,0.0532,0.0535,0.0531,0.0527,0.0518,0.0523,0.0503,0.05,0.0524,0.0524,0.0523,0.0523,0,0,0.0391,0.0429,0.0431,0.0446,0.0457,0.0463,0.0483,0.0501,0.052,0.0527,0.0551,0.0561,0.056,0.0565,0.0564,0.0548,0.0534,0.0541,0.0539,0.0526,0.0508,0.0453,0.0444,0.0537,0.0537,0.0536,0.0494,0,0.0394,0.0424,0.044,0.046,0.0474,0.0489,0.0511,0.0527,0.0544,0.0567,0.0569,0.0589,0.0575,0.0588,0.0571,0.0549,0.0529,0.0546,0.0502,0.05,0.0453,0.044,0.0536,0.0492,0.0491,0.0491,0.049,0,0.0396,0.0421,0.0449,0.0488,0.0496,0.0506,0.0547,0.0568,0.0597,0.0615,0.0629,0.0632,0.0622,0.0606,0.0565,0.0581,0.0545,0.0519,0.0517,0.0453,0.044,0.0485,0.0485,0.0486,0.0486,0.0486,0.0487,0,0.0389,0.0424,0.0453,0.0464,0.0504,0.0527,0.0548,0.0582,0.0611,0.0645,0.0661,0.0658,0.0655,0.0619,0.0559,0.057,0.0499,0.0507,0.0421,0.0417,0.047,0.047,0.0467,0.0467,0.0467,0.0467,0.0467,0,0.0389,0.0409,0.0456,0.0473,0.0509,0.0535,0.0578,0.0607,0.0644,0.0671,0.0684,0.0692,0.0657,0.0616,0.0566,0.0475,0.0502,0.0415,0.0399,0.0481,0.0483,0.0468,0.0468,0.0465,0.0466,0.0466,0.0466,0,0.0374,0.0407,0.044,0.0491,0.051,0.0535,0.0591,0.0623,0.0661,0.0695,0.0707,0.0708,0.0657,0.0602,0.0529,0.0473,0.04,0.0359,0.0441,0.0433,0.033,0.0332,0.0274,0.0272,0.027,0.0268,0.0266,0,0.037,0.0391,0.045,0.0473,0.0497,0.0543,0.058,0.0629,0.0656,0.0698,0.0705,0.0677,0.0663,0.0519,0.0463,0.0356,0.0335,0.0297,0.0321,0.0317,0.0309,0.0314,0.0319,0.0263,0.0263,0.0262,0.0262,0,0.0358,0.0383,0.0412,0.0467,0.0506,0.0555,0.0602,0.0618,0.0673,0.0702,0.069,0.0642,0.0573,0.0491,0.0396,0.0324,0.0326,0.0276,0.0281,0.0303,0.0304,0.0298,0.0306,0.0255,0.0256,0.0256,0.0257,0,0.0345,0.0358,0.0406,0.045,0.0505,0.0555,0.0581,0.0608,0.0639,0.0675,0.0661,0.0618,0.0597,0.0471,0.0388,0.0305,0.0293,0.027,0.0275,0.0282,0.0292,0.0296,0.0223,0,0,0,0,0,0.0329,0.035,0.0389,0.0444,0.0501,0.0541,0.0596,0.0621,0.0659,0.0642,0.0653,0.0591,0.048,0.0443,0.0347,0.0352,0.0278,0.0236,0.0253,0.0216,0.0224,0.023,0,0,0,0,0,0,0.0318,0.035,0.0378,0.0437,0.0478,0.0545,0.0584,0.0611,0.0598,0.0621,0.0561,0.0553,0.0443,0.0531,0.0341,0.032,0.0313,0.0195,0.0192,0.0211,0.0219,0.0225,0.0234,0,0,0,0,0]}]]